Tracking 30696 objects as of 15-Jun-2025
HD Live streaming from Space Station
objects crossing your sky now

FENGYUN 1C DEB

Track FENGYUN 1C DEB now!
10-day predictions


NORAD ID: 35104
Int'l Code: 1999-025DKG
Perigee: 811.3 km
Apogee: 854.0 km
Inclination: 98.6 °
Period: 101.4 minutes
Semi major axis: 7203 km
RCS: 0.011 m2 (small)
Launch date: May 10, 1999
Source: People's Republic of China (PRC)
Launch site: Taiyaun Space Center, China (TSC)

Note: This is SATELLITE DEBRIS
Your satellite tracking list
Your tracking list is empty




NASA's NSSDC Master Catalog

Two Line Element Set (TLE):
1 35104U 99025DKG 25164.27017685  .00001048  00000-0  51126-3 0  9993
2 35104  98.5965 176.0901 0029593 311.5488 110.6577 14.19957741874036
Source of the keplerian elements: AFSPC